Météorologie Historique pour Midland Airpark, TX

Change the Weather History Date:

lundi, avril 2, 2012

  Actual Average (KMAF) Record (KMAF)
Temperature  
Température moyenne 73 ° F 60 ° F  
Température maximum 82 ° F 75 ° F 95 ° F (2011)
Température minimum 63 ° F 45 ° F 29 ° F (1938)
Degree Days  
Degrés-jours de chauffage 0 6  
Month to date heating degree days 13  
Since 1 July heating degree days 2557  
Cooling Degree Days 8 1  
Month to date cooling degree days 2  
Year to date cooling degree days 20  
Growing Degree Days 23 (Base 50)    
Moisture  
Point de rosée 29 ° F    
Average Humidity 24    
Maximum Humidity 54    
Minimum Humidity 9    
Précipitation  
Précipitation 0.00 pouce 0.02 pouce 0.16 pouce (1960)
Month to date precipitation 0.04  
Year to date precipitation 1.91  
Neige  
Neige 0.00 pouce - - ()
Month to date snowfall  
Since 1 July snowfall  
Épaisseur de neige -    
Pression au niveau de la mer  
Pression au niveau de la mer 29.63 pouce    
Vent  
Vitesse du vent 11 mph (OSO)    
Vitesse maximum du vent 22 mph    
Max Gust Speed 31 mph    
Visibilité 10 Miles terrestres    
Evénements      
T = Trace of Precipitation, MM = Missing Value Source: NWS Daily Summary

Daily Weather History Graph

Daily Weather History Graph

Search for Another Location

Airport:

Trip Planner

Search our weather history database for the weather conditions in past years. The results will help you decide how hot, cold, wet, or windy it might be!

Date:

Astronomie

Apr. 02, 2012 Lever Coucher
Temps réel 07:34 CDT 20:09 CDT
Crépuscule civil 07:10 CDT 20:33 CDT
Crépuscule nautique 06:41 CDT 21:02 CDT
Crépuscule astronomique 06:11 CDT 21:32 CDT
Lune 16:01 CDT (4/2) 04:33 CDT (4/2)
Durée de lumière visible 13h 23m
Longueur du jour
12h 34m
Lune gibbeuse croissante, 78% of the Moon is Illuminated
avr 2
Lune gibbeuse croissante
avr 6
Pleine lune
avr 13
Dernier quartier
avr 21
Nouveau
avr 29
Premier quartier

Hourly Weather History & Observations

Heure (CDT) Température Point de rosée Humidité Pression Visibilité Wind Dir Vitesse du vent Vitesse des rafales Precip Evénements Conditions météo
12:15 AM 74.3 ° F 44.4 ° F 34% 29.63 pouce 10.0 mi Sud 9.2 mph - N/A   Ciel dégagé
12:35 AM 73.6 ° F 46.9 ° F 39% 29.63 pouce 10.0 mi Sud 8.1 mph - N/A   Ciel dégagé
12:55 AM 73.0 ° F 48.7 ° F 42% 29.62 pouce 10.0 mi Sud 10.4 mph - N/A   Ciel dégagé
1:15 AM 72.7 ° F 48.7 ° F 43% 29.63 pouce 10.0 mi Sud 10.4 mph - N/A   Ciel dégagé
1:55 AM 71.1 ° F 51.4 ° F 50% 29.63 pouce 10.0 mi Sud 10.4 mph - N/A   Ciel dégagé
2:15 AM 70.2 ° F 51.1 ° F 51% 29.63 pouce 10.0 mi Sud 10.4 mph - N/A   Ciel dégagé
2:35 AM 69.3 ° F 50.9 ° F 52% 29.63 pouce 10.0 mi Sud 8.1 mph - N/A   Ciel dégagé
2:55 AM 68.2 ° F 50.7 ° F 54% 29.63 pouce 10.0 mi Sud 6.9 mph - N/A   Ciel dégagé
3:15 AM 67.6 ° F 47.8 ° F 49% 29.63 pouce 10.0 mi Sud 8.1 mph - N/A   Ciel dégagé
3:35 AM 67.3 ° F 43.9 ° F 43% 29.63 pouce 10.0 mi Sud 11.5 mph - N/A   Ciel dégagé
3:55 AM 68.4 ° F 40.8 ° F 37% 29.62 pouce 10.0 mi Sud 16.1 mph - N/A   Ciel dégagé
4:35 AM 67.5 ° F 38.5 ° F 35% 29.60 pouce 10.0 mi Sud 11.5 mph - N/A   Ciel dégagé
4:55 AM 67.1 ° F 37.8 ° F 34% 29.60 pouce 10.0 mi Sud 11.5 mph - N/A   Ciel dégagé
5:15 AM 66.6 ° F 37.4 ° F 34% 29.61 pouce 10.0 mi Sud 11.5 mph - N/A   Ciel dégagé
5:35 AM 66.0 ° F 37.4 ° F 35% 29.61 pouce 10.0 mi SSO 10.4 mph - N/A   Ciel dégagé
5:55 AM 65.8 ° F 37.9 ° F 36% 29.62 pouce 10.0 mi SSO 11.5 mph - N/A   Ciel dégagé
6:15 AM 66.4 ° F 38.5 ° F 36% 29.62 pouce 10.0 mi SSO 12.7 mph - N/A   Ciel dégagé
6:35 AM 66.6 ° F 38.3 ° F 35% 29.62 pouce 10.0 mi SSO 12.7 mph - N/A   Ciel dégagé
6:55 AM 66.2 ° F 38.8 ° F 37% 29.63 pouce 10.0 mi SSO 11.5 mph - N/A   Ciel dégagé
7:15 AM 66.2 ° F 40.1 ° F 38% 29.63 pouce 10.0 mi SSO 10.4 mph - N/A   Ciel dégagé
7:35 AM 65.7 ° F 41.2 ° F 41% 29.64 pouce 10.0 mi SSO 9.2 mph - N/A   Ciel dégagé
7:55 AM 64.6 ° F 41.2 ° F 42% 29.64 pouce 10.0 mi SSO 10.4 mph - N/A   Ciel dégagé
8:15 AM 64.8 ° F 41.9 ° F 43% 29.65 pouce 10.0 mi SO 9.2 mph - N/A   Ciel dégagé
8:35 AM 65.1 ° F 42.6 ° F 44% 29.65 pouce 10.0 mi OSO 4.6 mph - N/A   Ciel dégagé
8:55 AM 66.4 ° F 42.8 ° F 42% 29.65 pouce 10.0 mi SO 5.8 mph - N/A   Ciel dégagé
9:15 AM 68.4 ° F 41.9 ° F 38% 29.64 pouce 10.0 mi OSO 6.9 mph - N/A   Ciel dégagé
9:35 AM 70.3 ° F 39.2 ° F 32% 29.64 pouce 10.0 mi SO 11.5 mph - N/A   Ciel dégagé
9:55 AM 72.0 ° F 34.0 ° F 25% 29.64 pouce 10.0 mi Ouest 12.7 mph - N/A   Ciel dégagé
10:15 AM 73.8 ° F 23.5 ° F 15% 29.64 pouce 10.0 mi OSO 9.2 mph - N/A   Ciel dégagé
10:35 AM 74.7 ° F 21.4 ° F 14% 29.64 pouce 10.0 mi OSO 6.9 mph - N/A   Ciel dégagé
10:55 AM 76.1 ° F 22.1 ° F 13% 29.64 pouce 10.0 mi Ouest 11.5 mph - N/A   Ciel dégagé
11:15 AM 77.0 ° F 23.0 ° F 13% 29.64 pouce 10.0 mi OSO 8.1 mph - N/A   Ciel dégagé
11:35 AM 77.4 ° F 23.0 ° F 13% 29.63 pouce 10.0 mi OSO 9.2 mph - N/A   Ciel dégagé
11:55 AM 78.6 ° F 21.2 ° F 12% 29.63 pouce 10.0 mi SO 12.7 mph 18.4 mph N/A   Ciel dégagé
12:15 PM 80.1 ° F 19.9 ° F 11% 29.63 pouce 10.0 mi Ouest 11.5 mph 19.6 mph N/A   Ciel dégagé
12:55 PM 80.8 ° F 20.8 ° F 11% 29.64 pouce 10.0 mi Ouest 18.4 mph 28.8 mph N/A   Ciel dégagé
1:15 PM 80.2 ° F 23.5 ° F 12% 29.63 pouce 10.0 mi OSO 11.5 mph 25.3 mph N/A   Ciel dégagé
1:35 PM 80.4 ° F 23.7 ° F 12% 29.62 pouce 10.0 mi Ouest 13.8 mph 26.5 mph N/A   Ciel dégagé
1:55 PM 80.8 ° F 22.1 ° F 11% 29.62 pouce 10.0 mi SO 17.3 mph 23.0 mph N/A   Ciel dégagé
2:15 PM 81.0 ° F 21.0 ° F 11% 29.61 pouce 10.0 mi OSO 19.6 mph 24.2 mph N/A   Ciel dégagé
2:35 PM 80.6 ° F 21.0 ° F 11% 29.61 pouce 10.0 mi OSO 16.1 mph 24.2 mph N/A   Ciel dégagé
2:55 PM 81.3 ° F 21.7 ° F 11% 29.61 pouce 10.0 mi SO 11.5 mph 21.9 mph N/A   Ciel dégagé
3:15 PM 81.0 ° F 21.0 ° F 11% 29.60 pouce 10.0 mi OSO 17.3 mph 26.5 mph N/A   Ciel dégagé
3:35 PM 81.5 ° F 21.0 ° F 11% 29.60 pouce 10.0 mi OSO 19.6 mph 25.3 mph N/A   Ciel dégagé
3:55 PM 81.9 ° F 21.0 ° F 11% 29.60 pouce 10.0 mi Ouest 18.4 mph 25.3 mph N/A   Ciel dégagé
4:15 PM 82.0 ° F 20.7 ° F 10% 29.60 pouce 10.0 mi OSO 17.3 mph 25.3 mph N/A   Ciel dégagé
4:35 PM 81.9 ° F 20.8 ° F 10% 29.60 pouce 10.0 mi Ouest 21.9 mph 28.8 mph N/A   Ciel dégagé
4:55 PM 81.7 ° F 20.8 ° F 11% 29.60 pouce 10.0 mi Ouest 17.3 mph 29.9 mph N/A   Ciel dégagé
5:15 PM 81.3 ° F 20.1 ° F 10% 29.60 pouce 10.0 mi OSO 21.9 mph 31.1 mph N/A   Ciel dégagé
5:35 PM 80.8 ° F 19.4 ° F 10% 29.60 pouce 10.0 mi Ouest 18.4 mph 25.3 mph N/A   Ciel dégagé
5:55 PM 80.6 ° F 17.4 ° F 9% 29.61 pouce 10.0 mi Ouest 16.1 mph 25.3 mph N/A   Ciel dégagé
6:15 PM 80.1 ° F 16.5 ° F 9% 29.62 pouce 10.0 mi Ouest 17.3 mph 24.2 mph N/A   Ciel dégagé
6:35 PM 78.6 ° F 17.6 ° F 10% 29.62 pouce 10.0 mi ONO 17.3 mph 26.5 mph N/A   Ciel dégagé
6:55 PM 77.0 ° F 16.7 ° F 10% 29.62 pouce 10.0 mi ONO 17.3 mph - N/A   Ciel dégagé
7:35 PM 74.5 ° F 14.7 ° F 10% 29.64 pouce 10.0 mi ONO 15.0 mph 21.9 mph N/A   Ciel dégagé
7:55 PM 73.0 ° F 13.1 ° F 10% 29.64 pouce 10.0 mi NO 15.0 mph 21.9 mph N/A   Ciel dégagé
8:15 PM 71.4 ° F 11.1 ° F 10% 29.65 pouce 10.0 mi ONO 16.1 mph 21.9 mph N/A   Ciel dégagé
8:35 PM 70.0 ° F 10.2 ° F 10% 29.66 pouce 10.0 mi ONO 12.7 mph - N/A   Ciel dégagé
8:55 PM 68.5 ° F 10.0 ° F 10% 29.66 pouce 10.0 mi ONO 12.7 mph - N/A   Ciel dégagé
9:15 PM 67.6 ° F 10.4 ° F 11% 29.68 pouce 10.0 mi ONO 11.5 mph - N/A   Ciel dégagé
9:35 PM 66.4 ° F 10.0 ° F 11% 29.68 pouce 10.0 mi NO 11.5 mph - N/A   Ciel dégagé
9:55 PM 65.1 ° F 9.7 ° F 11% 29.70 pouce 10.0 mi NO 10.4 mph - N/A   Ciel dégagé
10:15 PM 63.9 ° F 9.5 ° F 12% 29.71 pouce 10.0 mi NO 10.4 mph - N/A   Ciel dégagé
10:35 PM 62.8 ° F 9.5 ° F 12% 29.71 pouce 10.0 mi NO 10.4 mph - N/A   Ciel dégagé
10:55 PM 62.2 ° F 9.5 ° F 13% 29.71 pouce 10.0 mi ONO 9.2 mph - N/A   Ciel dégagé
11:15 PM 62.4 ° F 9.5 ° F 12% 29.72 pouce 10.0 mi ONO 9.2 mph - N/A   Ciel dégagé
11:35 PM 62.8 ° F 9.0 ° F 12% 29.74 pouce 10.0 mi ONO 6.9 mph - N/A   Ciel dégagé
11:55 PM 62.6 ° F 8.4 ° F 12% 29.74 pouce 10.0 mi ONO 9.2 mph - N/A   Ciel dégagé